Wetterdaten: Mittwoch, 12.08.2015
Datum Zeit Temp. A. Feuchte A. Luftdruck Regen Wind Richtung Richtung Sonnenschein ET UV Solar Taupunkt Windchill Windben Empfang
12.08.2015 00:02 20,1 C 61 % 1016,1 hPa 0,0 l/m 0,0 km/h (0 Bft) N-NO 22 0 min 0,000 mm 0,0 UV-I 0 W/m 12,3 C 20,1 C 0,0 km/h (0 Bft) 0,00 %
12.08.2015 00:07 20,0 C 62 % 1016,1 hPa 0,0 l/m 0,0 km/h (0 Bft) NO 42 0 min 0,000 mm 0,0 UV-I 0 W/m 12,5 C 20,0 C 0,0 km/h (0 Bft) 0,00 %
12.08.2015 00:12 19,9 C 63 % 1016,0 hPa 0,0 l/m 0,0 km/h (0 Bft) NO 45 0 min 0,000 mm 0,0 UV-I 0 W/m 12,6 C 19,9 C 0,0 km/h (0 Bft) 0,00 %
12.08.2015 00:17 19,8 C 62 % 1016,0 hPa 0,0 l/m 0,0 km/h (0 Bft) NO 42 0 min 0,000 mm 0,0 UV-I 0 W/m 12,3 C 19,8 C 0,0 km/h (0 Bft) 0,00 %
12.08.2015 00:22 19,7 C 63 % 1016,2 hPa 0,0 l/m 0,0 km/h (0 Bft) NO 45 0 min 0,000 mm 0,0 UV-I 0 W/m 12,5 C 19,7 C 0,0 km/h (0 Bft) 0,00 %
12.08.2015 00:27 19,6 C 63 % 1016,0 hPa 0,0 l/m 0,0 km/h (0 Bft) NO 45 0 min 0,000 mm 0,0 UV-I 0 W/m 12,4 C 19,6 C 0,0 km/h (0 Bft) 0,00 %
12.08.2015 00:32 19,6 C 63 % 1015,9 hPa 0,0 l/m 0,0 km/h (0 Bft) NO 45 0 min 0,000 mm 0,0 UV-I 0 W/m 12,4 C 19,6 C 0,0 km/h (0 Bft) 0,00 %
12.08.2015 00:37 19,6 C 62 % 1016,0 hPa 0,0 l/m 0,0 km/h (0 Bft) NO 43 0 min 0,000 mm 0,0 UV-I 0 W/m 12,1 C 19,6 C 0,0 km/h (0 Bft) 0,00 %
12.08.2015 00:42 19,6 C 62 % 1016,1 hPa 0,0 l/m 0,0 km/h (0 Bft) NO 45 0 min 0,000 mm 0,0 UV-I 0 W/m 12,1 C 19,6 C 0,0 km/h (0 Bft) 0,00 %
12.08.2015 00:47 19,6 C 62 % 1015,9 hPa 0,0 l/m 0,0 km/h (0 Bft) NO 43 0 min 0,000 mm 0,0 UV-I 0 W/m 12,1 C 19,6 C 0,0 km/h (0 Bft) 0,00 %
12.08.2015 00:52 19,6 C 62 % 1016,0 hPa 0,0 l/m 0,0 km/h (0 Bft) NO 51 0 min 0,000 mm 0,0 UV-I 0 W/m 12,1 C 19,6 C 0,0 km/h (0 Bft) 0,00 %
12.08.2015 00:57 19,4 C 63 % 1015,9 hPa 0,0 l/m 0,0 km/h (0 Bft) NO 43 0 min 0,000 mm 0,0 UV-I 0 W/m 12,2 C 19,4 C 0,0 km/h (0 Bft) 0,00 %
12.08.2015 01:02 19,3 C 63 % 1015,9 hPa 0,0 l/m 0,0 km/h (0 Bft) N-NO 20 0 min 0,000 mm 0,0 UV-I 0 W/m 12,1 C 19,3 C 0,0 km/h (0 Bft) 0,00 %
12.08.2015 01:07 19,3 C 63 % 1016,1 hPa 0,0 l/m 0,0 km/h (0 Bft) NO 45 0 min 0,000 mm 0,0 UV-I 0 W/m 12,1 C 19,3 C 0,0 km/h (0 Bft) 0,00 %
12.08.2015 01:12 19,2 C 64 % 1015,8 hPa 0,0 l/m 0,0 km/h (0 Bft) NO 44 0 min 0,000 mm 0,0 UV-I 0 W/m 12,2 C 19,2 C 0,0 km/h (0 Bft) 0,00 %
12.08.2015 01:17 19,1 C 65 % 1015,8 hPa 0,0 l/m 0,0 km/h (0 Bft) N-NO 30 0 min 0,000 mm 0,0 UV-I 0 W/m 12,4 C 19,1 C 0,0 km/h (0 Bft) 0,00 %
12.08.2015 01:22 18,9 C 66 % 1015,9 hPa 0,0 l/m 0,0 km/h (0 Bft) W-NW 286 0 min 0,000 mm 0,0 UV-I 0 W/m 12,4 C 18,9 C 0,0 km/h (0 Bft) 0,00 %
12.08.2015 01:27 18,9 C 66 % 1015,9 hPa 0,0 l/m 0,0 km/h (0 Bft) N-NO 33 0 min 0,000 mm 0,0 UV-I 0 W/m 12,4 C 18,9 C 0,0 km/h (0 Bft) 0,00 %
12.08.2015 01:32 18,9 C 67 % 1015,9 hPa 0,0 l/m 0,0 km/h (0 Bft) NO 51 0 min 0,000 mm 0,0 UV-I 0 W/m 12,6 C 18,9 C 0,0 km/h (0 Bft) 0,00 %
12.08.2015 01:37 18,9 C 66 % 1016,0 hPa 0,0 l/m 0,0 km/h (0 Bft) NO 40 0 min 0,000 mm 0,0 UV-I 0 W/m 12,4 C 18,9 C 0,0 km/h (0 Bft) 0,00 %
12.08.2015 01:42 18,8 C 66 % 1015,9 hPa 0,0 l/m 0,0 km/h (0 Bft) NO 43 0 min 0,000 mm 0,0 UV-I 0 W/m 12,3 C 18,8 C 0,0 km/h (0 Bft) 0,00 %
12.08.2015 01:47 18,7 C 66 % 1016,0 hPa 0,0 l/m 0,0 km/h (0 Bft) NO 47 0 min 0,000 mm 0,0 UV-I 0 W/m 12,2 C 18,7 C 0,0 km/h (0 Bft) 0,00 %
12.08.2015 01:52 18,6 C 66 % 1015,7 hPa 0,0 l/m 0,0 km/h (0 Bft) NO 54 0 min 0,000 mm 0,0 UV-I 0 W/m 12,1 C 18,6 C 0,0 km/h (0 Bft) 0,00 %
12.08.2015 01:57 18,5 C 67 % 1015,8 hPa 0,0 l/m 0,0 km/h (0 Bft) NO 48 0 min 0,000 mm 0,0 UV-I 0 W/m 12,3 C 18,5 C 0,0 km/h (0 Bft) 0,00 %
12.08.2015 02:02 18,5 C 67 % 1015,8 hPa 0,0 l/m 0,0 km/h (0 Bft) NO 52 0 min 0,000 mm 0,0 UV-I 0 W/m 12,3 C 18,5 C 0,0 km/h (0 Bft) 0,00 %
12.08.2015 02:07 18,3 C 67 % 1015,9 hPa 0,0 l/m 0,0 km/h (0 Bft) NO 52 0 min 0,000 mm 0,0 UV-I 0 W/m 12,1 C 18,3 C 0,0 km/h (0 Bft) 0,00 %
12.08.2015 02:12 18,1 C 71 % 1016,0 hPa 0,0 l/m 0,0 km/h (0 Bft) NO 53 0 min 0,000 mm 0,0 UV-I 0 W/m 12,8 C 18,1 C 0,0 km/h (0 Bft) 0,00 %
12.08.2015 02:17 17,9 C 72 % 1016,0 hPa 0,0 l/m 0,0 km/h (0 Bft) NO 47 0 min 0,000 mm 0,0 UV-I 0 W/m 12,8 C 17,9 C 0,0 km/h (0 Bft) 0,00 %
12.08.2015 02:22 17,7 C 72 % 1016,1 hPa 0,0 l/m 0,0 km/h (0 Bft) NO 55 0 min 0,000 mm 0,0 UV-I 0 W/m 12,6 C 17,7 C 0,0 km/h (0 Bft) 0,00 %
12.08.2015 02:27 17,5 C 72 % 1016,1 hPa 0,0 l/m 0,0 km/h (0 Bft) O-NO 60 0 min 0,000 mm 0,0 UV-I 0 W/m 12,4 C 17,5 C 0,0 km/h (0 Bft) 0,00 %
12.08.2015 02:32 17,4 C 73 % 1016,0 hPa 0,0 l/m 0,0 km/h (0 Bft) NO 47 0 min 0,000 mm 0,0 UV-I 0 W/m 12,5 C 17,4 C 0,0 km/h (0 Bft) 0,00 %
12.08.2015 02:37 17,3 C 73 % 1016,1 hPa 0,0 l/m 0,0 km/h (0 Bft) NO 53 0 min 0,000 mm 0,0 UV-I 0 W/m 12,4 C 17,3 C 0,0 km/h (0 Bft) 0,00 %
12.08.2015 02:42 17,3 C 74 % 1015,9 hPa 0,0 l/m 0,0 km/h (0 Bft) NO 45 0 min 0,000 mm 0,0 UV-I 0 W/m 12,6 C 17,3 C 0,0 km/h (0 Bft) 0,00 %
12.08.2015 02:47 17,2 C 74 % 1016,0 hPa 0,0 l/m 0,0 km/h (0 Bft) NO 39 0 min 0,000 mm 0,0 UV-I 0 W/m 12,5 C 17,2 C 0,0 km/h (0 Bft) 0,00 %
12.08.2015 02:52 17,0 C 74 % 1016,0 hPa 0,0 l/m 0,0 km/h (0 Bft) NO 37 0 min 0,000 mm 0,0 UV-I 0 W/m 12,3 C 17,0 C 0,0 km/h (0 Bft) 0,00 %
12.08.2015 02:57 16,9 C 76 % 1015,9 hPa 0,0 l/m 0,0 km/h (0 Bft) NO 51 0 min 0,000 mm 0,0 UV-I 0 W/m 12,6 C 16,9 C 0,0 km/h (0 Bft) 0,00 %
12.08.2015 03:02 16,8 C 75 % 1016,2 hPa 0,0 l/m 0,0 km/h (0 Bft) NO 48 0 min 0,000 mm 0,0 UV-I 0 W/m 12,3 C 16,8 C 0,0 km/h (0 Bft) 0,00 %
12.08.2015 03:07 16,7 C 75 % 1016,1 hPa 0,0 l/m 0,0 km/h (0 Bft) O-NO 66 0 min 0,000 mm 0,0 UV-I 0 W/m 12,2 C 16,7 C 0,0 km/h (0 Bft) 0,00 %
12.08.2015 03:12 16,6 C 74 % 1016,2 hPa 0,0 l/m 0,0 km/h (0 Bft) O 99 0 min 0,000 mm 0,0 UV-I 0 W/m 11,9 C 16,6 C 0,0 km/h (0 Bft) 0,00 %
12.08.2015 03:17 16,6 C 74 % 1016,1 hPa 0,0 l/m 0,0 km/h (0 Bft) NO 37 0 min 0,000 mm 0,0 UV-I 0 W/m 11,9 C 16,6 C 0,0 km/h (0 Bft) 0,00 %
12.08.2015 03:22 16,6 C 74 % 1016,3 hPa 0,0 l/m 0,0 km/h (0 Bft) NO 42 0 min 0,000 mm 0,0 UV-I 0 W/m 11,9 C 16,6 C 0,0 km/h (0 Bft) 0,00 %
12.08.2015 03:27 16,6 C 74 % 1016,2 hPa 0,0 l/m 0,0 km/h (0 Bft) NO 43 0 min 0,000 mm 0,0 UV-I 0 W/m 11,9 C 16,6 C 0,0 km/h (0 Bft) 0,00 %
12.08.2015 03:32 16,5 C 75 % 1016,1 hPa 0,0 l/m 0,0 km/h (0 Bft) NO 44 0 min 0,000 mm 0,0 UV-I 0 W/m 12,1 C 16,5 C 0,0 km/h (0 Bft) 0,00 %
12.08.2015 03:37 16,4 C 77 % 1016,0 hPa 0,0 l/m 0,0 km/h (0 Bft) NO 47 0 min 0,000 mm 0,0 UV-I 0 W/m 12,4 C 16,4 C 0,0 km/h (0 Bft) 0,00 %
12.08.2015 03:42 16,2 C 77 % 1016,1 hPa 0,0 l/m 0,0 km/h (0 Bft) NO 45 0 min 0,000 mm 0,0 UV-I 0 W/m 12,2 C 16,2 C 0,0 km/h (0 Bft) 0,00 %
12.08.2015 03:47 16,0 C 79 % 1016,2 hPa 0,0 l/m 0,0 km/h (0 Bft) NO 51 0 min 0,000 mm 0,0 UV-I 0 W/m 12,4 C 16,0 C 0,0 km/h (0 Bft) 0,00 %
12.08.2015 03:52 15,8 C 79 % 1016,1 hPa 0,0 l/m 0,0 km/h (0 Bft) NO 42 0 min 0,000 mm 0,0 UV-I 0 W/m 12,2 C 15,8 C 0,0 km/h (0 Bft) 0,00 %
12.08.2015 03:57 15,7 C 79 % 1016,1 hPa 0,0 l/m 0,0 km/h (0 Bft) NO 38 0 min 0,000 mm 0,0 UV-I 0 W/m 12,1 C 15,7 C 0,0 km/h (0 Bft) 0,00 %
12.08.2015 04:02 15,7 C 79 % 1016,2 hPa 0,0 l/m 0,0 km/h (0 Bft) NO 47 0 min 0,000 mm 0,0 UV-I 0 W/m 12,1 C 15,7 C 0,0 km/h (0 Bft) 0,00 %
12.08.2015 04:07 15,6 C 79 % 1016,2 hPa 0,0 l/m 0,0 km/h (0 Bft) N-NO 27 0 min 0,000 mm 0,0 UV-I 0 W/m 12,0 C 15,6 C 0,0 km/h (0 Bft) 0,00 %
12.08.2015 04:12 15,6 C 79 % 1016,0 hPa 0,0 l/m 0,0 km/h (0 Bft) NO 34 0 min 0,000 mm 0,0 UV-I 0 W/m 12,0 C 15,6 C 0,0 km/h (0 Bft) 0,00 %
12.08.2015 04:17 15,6 C 79 % 1016,2 hPa 0,0 l/m 0,0 km/h (0 Bft) NO 34 0 min 0,000 mm 0,0 UV-I 0 W/m 12,0 C 15,6 C 0,0 km/h (0 Bft) 0,00 %
12.08.2015 04:22 15,6 C 79 % 1016,4 hPa 0,0 l/m 0,0 km/h (0 Bft) NO 34 0 min 0,000 mm 0,0 UV-I 0 W/m 12,0 C 15,6 C 0,0 km/h (0 Bft) 0,00 %
12.08.2015 04:27 15,6 C 79 % 1016,5 hPa 0,0 l/m 0,0 km/h (0 Bft) NO 34 0 min 0,000 mm 0,0 UV-I 0 W/m 12,0 C 15,6 C 0,0 km/h (0 Bft) 0,00 %
12.08.2015 04:32 15,6 C 79 % 1016,4 hPa 0,0 l/m 0,0 km/h (0 Bft) NO 34 0 min 0,000 mm 0,0 UV-I 0 W/m 12,0 C 15,6 C 0,0 km/h (0 Bft) 0,00 %
12.08.2015 04:37 15,5 C 80 % 1016,6 hPa 0,0 l/m 0,0 km/h (0 Bft) NO 46 0 min 0,000 mm 0,0 UV-I 0 W/m 12,1 C 15,5 C 0,0 km/h (0 Bft) 0,00 %
12.08.2015 04:42 15,4 C 79 % 1016,5 hPa 0,0 l/m 0,0 km/h (0 Bft) NO 49 0 min 0,000 mm 0,0 UV-I 0 W/m 11,8 C 15,4 C 0,0 km/h (0 Bft) 0,00 %
12.08.2015 04:47 15,3 C 80 % 1016,6 hPa 0,0 l/m 0,0 km/h (0 Bft) O-NO 66 0 min 0,000 mm 0,0 UV-I 0 W/m 11,9 C 15,3 C 0,0 km/h (0 Bft) 0,00 %
12.08.2015 04:52 15,3 C 79 % 1016,7 hPa 0,0 l/m 0,0 km/h (0 Bft) NO 43 0 min 0,000 mm 0,0 UV-I 0 W/m 11,7 C 15,3 C 0,0 km/h (0 Bft) 0,00 %
12.08.2015 04:57 15,2 C 79 % 1016,8 hPa 0,0 l/m 0,0 km/h (0 Bft) O 98 0 min 0,000 mm 0,0 UV-I 0 W/m 11,6 C 15,2 C 0,0 km/h (0 Bft) 0,00 %
12.08.2015 05:02 15,2 C 80 % 1016,8 hPa 0,0 l/m 0,0 km/h (0 Bft) O-NO 59 0 min 0,000 mm 0,0 UV-I 0 W/m 11,8 C 15,2 C 0,0 km/h (0 Bft) 0,00 %
12.08.2015 05:07 15,2 C 80 % 1016,8 hPa 0,0 l/m 0,0 km/h (0 Bft) N-NO 23 0 min 0,000 mm 0,0 UV-I 0 W/m 11,8 C 15,2 C 0,0 km/h (0 Bft) 0,00 %
12.08.2015 05:12 15,2 C 80 % 1016,7 hPa 0,0 l/m 0,0 km/h (0 Bft) NO 46 0 min 0,000 mm 0,0 UV-I 0 W/m 11,8 C 15,2 C 0,0 km/h (0 Bft) 0,00 %
12.08.2015 05:17 15,2 C 80 % 1016,8 hPa 0,0 l/m 0,0 km/h (0 Bft) NO 43 0 min 0,000 mm 0,0 UV-I 0 W/m 11,8 C 15,2 C 0,0 km/h (0 Bft) 0,00 %
12.08.2015 05:22 15,2 C 80 % 1016,7 hPa 0,0 l/m 0,0 km/h (0 Bft) NO 40 0 min 0,000 mm 0,0 UV-I 0 W/m 11,8 C 15,2 C 0,0 km/h (0 Bft) 0,00 %
12.08.2015 05:27 15,1 C 81 % 1016,8 hPa 0,0 l/m 0,0 km/h (0 Bft) NO 56 0 min 0,000 mm 0,0 UV-I 0 W/m 11,9 C 15,1 C 0,0 km/h (0 Bft) 0,00 %
12.08.2015 05:32 15,0 C 81 % 1016,8 hPa 0,0 l/m 0,0 km/h (0 Bft) NO 39 0 min 0,000 mm 0,0 UV-I 0 W/m 11,8 C 15,0 C 0,0 km/h (0 Bft) 0,00 %
12.08.2015 05:37 14,9 C 82 % 1016,9 hPa 0,0 l/m 0,0 km/h (0 Bft) NO 53 0 min 0,000 mm 0,0 UV-I 0 W/m 11,9 C 14,9 C 0,0 km/h (0 Bft) 0,00 %
12.08.2015 05:42 14,9 C 81 % 1016,9 hPa 0,0 l/m 0,0 km/h (0 Bft) N-NO 29 0 min 0,000 mm 0,0 UV-I 0 W/m 11,7 C 14,9 C 0,0 km/h (0 Bft) 0,00 %
12.08.2015 05:47 15,0 C 81 % 1017,0 hPa 0,0 l/m 0,0 km/h (0 Bft) NO 38 0 min 0,000 mm 0,0 UV-I 0 W/m 11,8 C 15,0 C 0,0 km/h (0 Bft) 0,00 %
12.08.2015 05:52 15,0 C 81 % 1017,2 hPa 0,0 l/m 0,0 km/h (0 Bft) N 11 0 min 0,000 mm 0,0 UV-I 0 W/m 11,8 C 15,0 C 0,0 km/h (0 Bft) 0,00 %
12.08.2015 05:57 15,0 C 82 % 1017,2 hPa 0,0 l/m 0,0 km/h (0 Bft) NO 36 0 min 0,000 mm 0,0 UV-I 0 W/m 12,0 C 15,0 C 0,0 km/h (0 Bft) 0,00 %
12.08.2015 06:02 14,9 C 83 % 1017,2 hPa 0,0 l/m 0,0 km/h (0 Bft) O-NO 72 0 min 0,000 mm 0,0 UV-I 4 W/m 12,0 C 14,9 C 0,0 km/h (0 Bft) 0,00 %
12.08.2015 06:07 14,8 C 83 % 1017,2 hPa 0,0 l/m 0,0 km/h (0 Bft) N-NO 19 0 min 0,000 mm 0,0 UV-I 9 W/m 11,9 C 14,8 C 0,0 km/h (0 Bft) 0,00 %
12.08.2015 06:12 14,7 C 83 % 1017,3 hPa 0,0 l/m 0,0 km/h (0 Bft) NO 50 0 min 0,000 mm 0,0 UV-I 18 W/m 11,8 C 14,7 C 0,0 km/h (0 Bft) 0,00 %
12.08.2015 06:17 14,7 C 83 % 1017,2 hPa 0,0 l/m 0,0 km/h (0 Bft) N-NO 13 0 min 0,000 mm 0,0 UV-I 25 W/m 11,8 C 14,7 C 0,0 km/h (0 Bft) 0,00 %
12.08.2015 06:22 14,7 C 83 % 1017,3 hPa 0,0 l/m 0,0 km/h (0 Bft) NO 40 0 min 0,000 mm 0,0 UV-I 34 W/m 11,8 C 14,7 C 0,0 km/h (0 Bft) 0,00 %
12.08.2015 06:27 14,9 C 82 % 1017,4 hPa 0,0 l/m 0,0 km/h (0 Bft) N-NO 33 5 min 0,000 mm 0,0 UV-I 46 W/m 11,9 C 14,9 C 0,0 km/h (0 Bft) 0,00 %
12.08.2015 06:32 15,2 C 81 % 1017,4 hPa 0,0 l/m 0,0 km/h (0 Bft) NO 41 5 min 0,000 mm 0,0 UV-I 61 W/m 12,0 C 15,2 C 0,0 km/h (0 Bft) 0,00 %
12.08.2015 06:37 15,5 C 79 % 1017,3 hPa 0,0 l/m 0,0 km/h (0 Bft) N-NO 29 5 min 0,000 mm 0,0 UV-I 73 W/m 11,9 C 15,5 C 0,0 km/h (0 Bft) 0,00 %
12.08.2015 06:42 16,0 C 78 % 1017,5 hPa 0,0 l/m 0,0 km/h (0 Bft) NO 40 5 min 0,000 mm 0,0 UV-I 89 W/m 12,2 C 16,0 C 0,0 km/h (0 Bft) 0,00 %
12.08.2015 06:47 16,5 C 77 % 1017,6 hPa 0,0 l/m 0,0 km/h (0 Bft) N-NO 29 5 min 0,000 mm 0,0 UV-I 100 W/m 12,5 C 16,5 C 0,0 km/h (0 Bft) 0,00 %
12.08.2015 06:52 16,8 C 74 % 1017,4 hPa 0,0 l/m 0,0 km/h (0 Bft) NO 44 5 min 0,000 mm 0,0 UV-I 117 W/m 12,1 C 16,8 C 0,0 km/h (0 Bft) 0,00 %
12.08.2015 06:57 17,2 C 73 % 1017,5 hPa 0,0 l/m 0,0 km/h (0 Bft) NO 37 5 min 0,000 mm 0,0 UV-I 131 W/m 12,3 C 17,2 C 0,0 km/h (0 Bft) 0,00 %
12.08.2015 07:02 17,6 C 71 % 1017,5 hPa 0,0 l/m 0,0 km/h (0 Bft) NO 44 5 min 0,000 mm 0,0 UV-I 140 W/m 12,3 C 17,6 C 0,0 km/h (0 Bft) 0,00 %
12.08.2015 07:07 18,0 C 68 % 1017,7 hPa 0,0 l/m 0,0 km/h (0 Bft) N-NO 18 5 min 0,000 mm 0,0 UV-I 161 W/m 12,0 C 18,0 C 0,0 km/h (0 Bft) 0,00 %
12.08.2015 07:12 18,5 C 66 % 1017,6 hPa 0,0 l/m 0,0 km/h (0 Bft) N 356 5 min 0,000 mm 1,0 UV-I 169 W/m 12,0 C 18,5 C 0,0 km/h (0 Bft) 0,00 %
12.08.2015 07:17 19,0 C 65 % 1017,8 hPa 0,0 l/m 0,0 km/h (0 Bft) O-NO 66 5 min 0,000 mm 1,0 UV-I 122 W/m 12,3 C 19,0 C 0,0 km/h (0 Bft) 0,00 %
12.08.2015 07:22 19,3 C 65 % 1017,6 hPa 0,0 l/m 0,0 km/h (0 Bft) NO 54 0 min 0,000 mm 1,0 UV-I 125 W/m 12,6 C 19,3 C 0,0 km/h (0 Bft) 0,00 %
12.08.2015 07:27 19,4 C 66 % 1017,7 hPa 0,0 l/m 0,0 km/h (0 Bft) NO 48 5 min 0,000 mm 1,0 UV-I 147 W/m 12,9 C 19,4 C 0,0 km/h (0 Bft) 0,00 %
12.08.2015 07:32 19,3 C 66 % 1017,7 hPa 0,0 l/m 0,0 km/h (0 Bft) O-NO 63 0 min 0,000 mm 1,0 UV-I 114 W/m 12,8 C 19,3 C 0,0 km/h (0 Bft) 0,00 %
12.08.2015 07:37 19,3 C 67 % 1017,7 hPa 0,0 l/m 0,0 km/h (0 Bft) NO 46 0 min 0,000 mm 1,0 UV-I 134 W/m 13,0 C 19,3 C 0,0 km/h (0 Bft) 0,00 %
12.08.2015 07:42 19,4 C 66 % 1017,9 hPa 0,0 l/m 0,0 km/h (0 Bft) NO 40 0 min 0,000 mm 1,0 UV-I 124 W/m 12,9 C 19,4 C 0,0 km/h (0 Bft) 0,00 %
12.08.2015 07:47 19,6 C 66 % 1017,8 hPa 0,0 l/m 0,0 km/h (0 Bft) NO 39 5 min 0,000 mm 1,0 UV-I 206 W/m 13,1 C 19,6 C 0,0 km/h (0 Bft) 0,00 %
12.08.2015 07:52 20,0 C 63 % 1017,8 hPa 0,0 l/m 0,0 km/h (0 Bft) NO 40 5 min 0,000 mm 1,0 UV-I 215 W/m 12,7 C 20,0 C 0,0 km/h (0 Bft) 0,00 %
12.08.2015 07:57 20,7 C 60 % 1017,9 hPa 0,0 l/m 0,0 km/h (0 Bft) N-NO 16 5 min 0,000 mm 1,0 UV-I 223 W/m 12,7 C 20,7 C 0,0 km/h (0 Bft) 0,00 %
12.08.2015 08:02 21,6 C 58 % 1017,9 hPa 0,0 l/m 0,0 km/h (0 Bft) NO 40 5 min 0,000 mm 1,0 UV-I 238 W/m 13,0 C 21,6 C 0,0 km/h (0 Bft) 0,00 %
12.08.2015 08:07 22,4 C 55 % 1018,1 hPa 0,0 l/m 0,0 km/h (0 Bft) NO 38 5 min 0,000 mm 1,0 UV-I 245 W/m 12,9 C 22,4 C 0,0 km/h (0 Bft) 0,00 %
12.08.2015 08:12 23,3 C 51 % 1018,2 hPa 0,0 l/m 0,0 km/h (0 Bft) NO 50 5 min 0,000 mm 1,0 UV-I 253 W/m 12,6 C 23,3 C 0,0 km/h (0 Bft) 0,00 %
12.08.2015 08:17 23,8 C 52 % 1018,0 hPa 0,0 l/m 0,4 km/h (0 Bft) W-NW 293 5 min 0,000 mm 1,0 UV-I 236 W/m 13,3 C 23,8 C 4,0 km/h (1 Bft) 0,00 %
12.08.2015 08:22 24,1 C 50 % 1017,9 hPa 0,0 l/m 0,0 km/h (0 Bft) NO 50 5 min 0,000 mm 1,0 UV-I 276 W/m 13,0 C 24,1 C 0,0 km/h (0 Bft) 0,00 %
12.08.2015 08:27 24,3 C 49 % 1018,1 hPa 0,0 l/m 0,0 km/h (0 Bft) N-NW 336 5 min 0,000 mm 1,0 UV-I 286 W/m 12,9 C 24,3 C 0,0 km/h (0 Bft) 0,00 %
12.08.2015 08:32 24,7 C 48 % 1018,1 hPa 0,0 l/m 0,0 km/h (0 Bft) NO 48 5 min 0,000 mm 1,0 UV-I 283 W/m 12,9 C 24,7 C 0,0 km/h (0 Bft) 0,00 %
12.08.2015 08:37 25,2 C 43 % 1018,3 hPa 0,0 l/m 0,0 km/h (0 Bft) N-NO 31 5 min 0,000 mm 1,0 UV-I 277 W/m 11,7 C 25,2 C 0,0 km/h (0 Bft) 0,00 %
12.08.2015 08:42 25,8 C 41 % 1018,3 hPa 0,0 l/m 0,0 km/h (0 Bft) N-NO 28 5 min 0,000 mm 1,0 UV-I 313 W/m 11,5 C 25,8 C 0,0 km/h (0 Bft) 0,00 %
12.08.2015 08:47 26,3 C 40 % 1018,4 hPa 0,0 l/m 0,0 km/h (0 Bft) N 350 5 min 0,000 mm 1,0 UV-I 330 W/m 11,6 C 26,3 C 0,0 km/h (0 Bft) 0,00 %
12.08.2015 08:52 26,7 C 41 % 1018,4 hPa 0,0 l/m 0,0 km/h (0 Bft) NO 43 5 min 0,000 mm 1,0 UV-I 331 W/m 12,3 C 26,7 C 0,0 km/h (0 Bft) 0,00 %
12.08.2015 08:57 26,8 C 41 % 1018,3 hPa 0,0 l/m 0,0 km/h (0 Bft) N 354 5 min 0,000 mm 1,0 UV-I 292 W/m 12,4 C 26,8 C 0,0 km/h (0 Bft) 0,00 %
12.08.2015 09:02 26,8 C 41 % 1018,3 hPa 0,0 l/m 0,0 km/h (0 Bft) N 350 0 min 0,000 mm 1,0 UV-I 191 W/m 12,4 C 26,8 C 0,0 km/h (0 Bft) 0,00 %
12.08.2015 09:07 26,7 C 43 % 1018,4 hPa 0,0 l/m 0,0 km/h (0 Bft) NO 44 5 min 0,000 mm 1,0 UV-I 355 W/m 13,1 C 26,7 C 0,0 km/h (0 Bft) 0,00 %
12.08.2015 09:12 26,5 C 43 % 1018,4 hPa 0,0 l/m 0,0 km/h (0 Bft) N 354 5 min 0,000 mm 2,0 UV-I 390 W/m 12,9 C 26,5 C 0,0 km/h (0 Bft) 0,00 %
12.08.2015 09:17 26,9 C 42 % 1018,7 hPa 0,0 l/m 0,0 km/h (0 Bft) NO 48 5 min 0,000 mm 2,0 UV-I 401 W/m 12,9 C 26,9 C 0,0 km/h (0 Bft) 0,00 %
12.08.2015 09:22 27,5 C 39 % 1018,5 hPa 0,0 l/m 0,0 km/h (0 Bft) NO 47 5 min 0,000 mm 2,0 UV-I 397 W/m 12,3 C 27,5 C 0,0 km/h (0 Bft) 0,00 %
12.08.2015 09:27 28,0 C 41 % 1018,6 hPa 0,0 l/m 0,0 km/h (0 Bft) N 352 5 min 0,000 mm 2,0 UV-I 394 W/m 13,5 C 28,0 C 0,0 km/h (0 Bft) 0,00 %
12.08.2015 09:32 28,3 C 41 % 1018,7 hPa 0,0 l/m 0,0 km/h (0 Bft) N-NO 30 5 min 0,000 mm 2,0 UV-I 417 W/m 13,8 C 28,3 C 0,0 km/h (0 Bft) 0,00 %
12.08.2015 09:37 28,1 C 41 % 1018,6 hPa 0,0 l/m 0,0 km/h (0 Bft) N 352 5 min 0,000 mm 2,0 UV-I 436 W/m 13,6 C 28,1 C 0,0 km/h (0 Bft) 0,00 %
12.08.2015 09:42 28,2 C 40 % 1018,6 hPa 0,0 l/m 0,0 km/h (0 Bft) N-NO 24 0 min 0,000 mm 1,0 UV-I 260 W/m 13,3 C 28,2 C 0,0 km/h (0 Bft) 0,00 %
12.08.2015 09:47 28,6 C 41 % 1018,7 hPa 0,0 l/m 2,2 km/h (1 Bft) NW 318 5 min 0,000 mm 2,0 UV-I 486 W/m 14,0 C 28,6 C 4,0 km/h (1 Bft) 0,00 %
12.08.2015 09:52 28,6 C 39 % 1018,4 hPa 0,0 l/m 0,0 km/h (0 Bft) NO 44 5 min 0,000 mm 2,0 UV-I 494 W/m 13,3 C 28,6 C 0,0 km/h (0 Bft) 0,00 %
12.08.2015 09:57 28,6 C 39 % 1018,5 hPa 0,0 l/m 0,0 km/h (0 Bft) N-NW 347 5 min 0,000 mm 2,0 UV-I 481 W/m 13,3 C 28,6 C 0,0 km/h (0 Bft) 0,00 %
12.08.2015 10:02 28,7 C 40 % 1018,6 hPa 0,0 l/m 0,0 km/h (0 Bft) NO 53 5 min 0,000 mm 2,0 UV-I 506 W/m 13,7 C 28,7 C 0,0 km/h (0 Bft) 0,00 %
12.08.2015 10:07 28,9 C 38 % 1018,5 hPa 0,0 l/m 0,0 km/h (0 Bft) N-NW 338 5 min 0,000 mm 2,0 UV-I 479 W/m 13,1 C 28,9 C 0,0 km/h (0 Bft) 0,00 %
12.08.2015 10:12 29,3 C 34 % 1018,5 hPa 0,0 l/m 0,0 km/h (0 Bft) NO 44 5 min 0,000 mm 2,0 UV-I 544 W/m 11,8 C 29,3 C 0,0 km/h (0 Bft) 0,00 %
12.08.2015 10:17 29,6 C 36 % 1018,7 hPa 0,0 l/m 0,0 km/h (0 Bft) NO 39 5 min 0,000 mm 2,0 UV-I 436 W/m 12,9 C 29,6 C 0,0 km/h (0 Bft) 0,00 %
12.08.2015 10:22 29,6 C 36 % 1018,7 hPa 0,0 l/m 0,0 km/h (0 Bft) W-NW 287 5 min 0,000 mm 2,0 UV-I 455 W/m 12,9 C 29,6 C 0,0 km/h (0 Bft) 0,00 %
12.08.2015 10:27 29,5 C 35 % 1018,7 hPa 0,0 l/m 0,0 km/h (0 Bft) N-NO 33 5 min 0,000 mm 2,0 UV-I 612 W/m 12,4 C 29,5 C 0,0 km/h (0 Bft) 0,00 %
12.08.2015 10:32 29,7 C 36 % 1018,6 hPa 0,0 l/m 0,0 km/h (0 Bft) O-NO 57 5 min 0,000 mm 2,0 UV-I 578 W/m 13,0 C 29,7 C 0,0 km/h (0 Bft) 0,00 %
12.08.2015 10:37 29,9 C 33 % 1018,7 hPa 0,0 l/m 0,0 km/h (0 Bft) N-NO 25 5 min 0,000 mm 2,0 UV-I 468 W/m 11,9 C 29,9 C 0,0 km/h (0 Bft) 0,00 %
12.08.2015 10:42 30,0 C 32 % 1018,8 hPa 0,0 l/m 0,0 km/h (0 Bft) N 6 5 min 0,000 mm 2,0 UV-I 659 W/m 11,5 C 30,0 C 0,0 km/h (0 Bft) 0,00 %
12.08.2015 10:47 30,3 C 32 % 1018,6 hPa 0,0 l/m 2,2 km/h (1 Bft) NW 315 5 min 0,000 mm 2,0 UV-I 465 W/m 11,7 C 30,3 C 4,0 km/h (1 Bft) 0,00 %
12.08.2015 10:52 30,2 C 31 % 1018,8 hPa 0,0 l/m 0,0 km/h (0 Bft) NO 45 0 min 0,000 mm 2,0 UV-I 362 W/m 11,2 C 30,2 C 0,0 km/h (0 Bft) 0,00 %
12.08.2015 10:57 30,0 C 33 % 1018,7 hPa 0,0 l/m 0,0 km/h (0 Bft) NO 48 0 min 0,000 mm 1,0 UV-I 325 W/m 11,9 C 30,0 C 0,0 km/h (0 Bft) 0,00 %
12.08.2015 11:02 29,8 C 36 % 1018,6 hPa 0,0 l/m 0,0 km/h (0 Bft) N 4 0 min 0,000 mm 1,0 UV-I 288 W/m 13,1 C 29,8 C 0,0 km/h (0 Bft) 0,00 %
12.08.2015 11:07 29,6 C 38 % 1018,7 hPa 0,0 l/m 0,0 km/h (0 Bft) S 182 0 min 0,000 mm 1,0 UV-I 285 W/m 13,8 C 29,6 C 0,0 km/h (0 Bft) 0,00 %
12.08.2015 11:12 29,1 C 41 % 1018,7 hPa 0,0 l/m 0,0 km/h (0 Bft) N-NW 348 0 min 0,000 mm 2,0 UV-I 316 W/m 14,5 C 29,1 C 0,0 km/h (0 Bft) 0,00 %
12.08.2015 11:17 28,8 C 39 % 1018,6 hPa 0,0 l/m 0,0 km/h (0 Bft) W-NW 297 0 min 0,000 mm 2,0 UV-I 379 W/m 13,4 C 28,8 C 0,0 km/h (0 Bft) 0,00 %
12.08.2015 11:22 28,6 C 41 % 1018,7 hPa 0,0 l/m 0,0 km/h (0 Bft) N-NO 17 0 min 0,000 mm 2,0 UV-I 372 W/m 14,0 C 28,6 C 0,0 km/h (0 Bft) 0,00 %
12.08.2015 11:27 28,7 C 39 % 1018,7 hPa 0,0 l/m 0,0 km/h (0 Bft) NO 44 5 min 0,000 mm 2,0 UV-I 586 W/m 13,4 C 28,7 C 0,0 km/h (0 Bft) 0,00 %
12.08.2015 11:32 29,0 C 37 % 1018,8 hPa 0,0 l/m 0,0 km/h (0 Bft) N-NO 25 0 min 0,000 mm 2,0 UV-I 393 W/m 12,8 C 29,0 C 0,0 km/h (0 Bft) 0,00 %
12.08.2015 11:37 29,4 C 35 % 1018,6 hPa 0,0 l/m 0,0 km/h (0 Bft) N 354 0 min 0,000 mm 2,0 UV-I 380 W/m 12,3 C 29,4 C 0,0 km/h (0 Bft) 0,00 %
12.08.2015 11:42 29,6 C 35 % 1018,7 hPa 0,0 l/m 0,0 km/h (0 Bft) NO 36 0 min 0,000 mm 2,0 UV-I 375 W/m 12,5 C 29,6 C 0,0 km/h (0 Bft) 0,00 %
12.08.2015 11:47 29,8 C 33 % 1018,6 hPa 0,0 l/m 0,0 km/h (0 Bft) N-NO 27 0 min 0,000 mm 2,0 UV-I 418 W/m 11,8 C 29,8 C 0,0 km/h (0 Bft) 0,00 %
12.08.2015 11:52 29,8 C 33 % 1018,6 hPa 0,0 l/m 0,0 km/h (0 Bft) NO 52 0 min 0,000 mm 2,0 UV-I 383 W/m 11,8 C 29,8 C 0,0 km/h (0 Bft) 0,00 %
12.08.2015 11:57 29,9 C 34 % 1018,6 hPa 0,0 l/m 0,0 km/h (0 Bft) O-NO 68 0 min 0,000 mm 2,0 UV-I 387 W/m 12,3 C 29,9 C 0,0 km/h (0 Bft) 0,00 %
12.08.2015 12:02 30,0 C 33 % 1018,7 hPa 0,0 l/m 0,0 km/h (0 Bft) N 0 5 min 0,000 mm 3,0 UV-I 818 W/m 11,9 C 30,0 C 0,0 km/h (0 Bft) 0,00 %
12.08.2015 12:07 30,3 C 32 % 1018,7 hPa 0,0 l/m 0,0 km/h (0 Bft) N-NW 343 5 min 0,000 mm 3,0 UV-I 751 W/m 11,7 C 30,3 C 0,0 km/h (0 Bft) 0,00 %
12.08.2015 12:12 30,8 C 31 % 1018,5 hPa 0,0 l/m 1,8 km/h (1 Bft) N 350 5 min 0,000 mm 3,0 UV-I 674 W/m 11,7 C 30,8 C 4,0 km/h (1 Bft) 0,00 %
12.08.2015 12:17 31,2 C 30 % 1018,6 hPa 0,0 l/m 0,0 km/h (0 Bft) N-NO 17 5 min 0,000 mm 3,0 UV-I 604 W/m 11,5 C 31,2 C 0,0 km/h (0 Bft) 0,00 %
12.08.2015 12:22 31,4 C 28 % 1018,5 hPa 0,0 l/m 0,0 km/h (0 Bft) NO 39 5 min 0,000 mm 4,0 UV-I 781 W/m 10,7 C 31,4 C 0,0 km/h (0 Bft) 0,00 %
12.08.2015 12:27 31,6 C 30 % 1018,4 hPa 0,0 l/m 0,0 km/h (0 Bft) N-NO 32 5 min 0,000 mm 4,0 UV-I 756 W/m 11,9 C 31,6 C 0,0 km/h (0 Bft) 0,00 %
12.08.2015 12:32 31,7 C 28 % 1018,5 hPa 0,0 l/m 0,0 km/h (0 Bft) N-NO 33 5 min 0,000 mm 4,0 UV-I 760 W/m 10,9 C 31,7 C 0,0 km/h (0 Bft) 0,00 %
12.08.2015 12:37 31,7 C 29 % 1018,4 hPa 0,0 l/m 0,0 km/h (0 Bft) NO 38 5 min 0,000 mm 4,0 UV-I 783 W/m 11,5 C 31,7 C 0,0 km/h (0 Bft) 0,00 %
12.08.2015 12:42 31,7 C 29 % 1018,3 hPa 0,0 l/m 0,0 km/h (0 Bft) N-NO 24 5 min 0,000 mm 4,0 UV-I 808 W/m 11,5 C 31,7 C 0,0 km/h (0 Bft) 0,00 %
12.08.2015 12:47 31,8 C 33 % 1018,2 hPa 0,0 l/m 0,0 km/h (0 Bft) O 93 5 min 0,000 mm 4,0 UV-I 810 W/m 13,5 C 31,8 C 0,0 km/h (0 Bft) 0,00 %
12.08.2015 12:52 32,0 C 32 % 1018,2 hPa 0,0 l/m 0,0 km/h (0 Bft) N 350 5 min 0,000 mm 4,0 UV-I 802 W/m 13,2 C 32,0 C 0,0 km/h (0 Bft) 0,00 %
12.08.2015 12:57 32,2 C 32 % 1018,1 hPa 0,0 l/m 0,0 km/h (0 Bft) O-NO 68 5 min 0,000 mm 4,0 UV-I 828 W/m 13,4 C 32,2 C 0,0 km/h (0 Bft) 0,00 %
12.08.2015 13:02 32,4 C 32 % 1018,0 hPa 0,0 l/m 3,2 km/h (1 Bft) W-NW 290 5 min 0,000 mm 4,0 UV-I 825 W/m 13,6 C 32,4 C 4,0 km/h (1 Bft) 0,00 %
12.08.2015 13:07 32,4 C 32 % 1018,1 hPa 0,0 l/m 0,0 km/h (0 Bft) N-NW 338 5 min 0,000 mm 4,0 UV-I 819 W/m 13,6 C 32,4 C 0,0 km/h (0 Bft) 0,00 %
12.08.2015 13:12 32,7 C 32 % 1018,1 hPa 0,0 l/m 0,0 km/h (0 Bft) N-NO 19 5 min 0,000 mm 4,0 UV-I 840 W/m 13,8 C 32,7 C 0,0 km/h (0 Bft) 0,00 %
12.08.2015 13:17 32,9 C 30 % 1018,2 hPa 0,0 l/m 0,0 km/h (0 Bft) N-NO 30 5 min 0,000 mm 4,0 UV-I 830 W/m 13,0 C 32,9 C 0,0 km/h (0 Bft) 0,00 %
12.08.2015 13:22 32,9 C 32 % 1018,0 hPa 0,0 l/m 1,4 km/h (1 Bft) NW 314 5 min 0,000 mm 4,0 UV-I 842 W/m 14,0 C 32,9 C 4,0 km/h (1 Bft) 0,00 %
12.08.2015 13:27 32,7 C 30 % 1017,9 hPa 0,0 l/m 0,0 km/h (0 Bft) NO 35 5 min 0,000 mm 4,0 UV-I 835 W/m 12,8 C 32,7 C 0,0 km/h (0 Bft) 0,00 %
12.08.2015 13:32 32,7 C 32 % 1018,0 hPa 0,0 l/m 4,0 km/h (1 Bft) W 278 5 min 0,000 mm 4,0 UV-I 814 W/m 13,8 C 32,7 C 7,9 km/h (2 Bft) 0,00 %
12.08.2015 13:37 32,9 C 30 % 1017,9 hPa 0,0 l/m 2,2 km/h (1 Bft) NW 305 5 min 0,000 mm 4,0 UV-I 858 W/m 13,0 C 32,9 C 4,0 km/h (1 Bft) 0,00 %
12.08.2015 13:42 33,1 C 27 % 1017,8 hPa 0,0 l/m 4,0 km/h (1 Bft) W-NW 299 5 min 0,000 mm 3,0 UV-I 807 W/m 11,6 C 33,1 C 4,0 km/h (1 Bft) 0,00 %
12.08.2015 13:47 33,2 C 29 % 1017,8 hPa 0,0 l/m 0,0 km/h (0 Bft) O-NO 58 5 min 0,000 mm 4,0 UV-I 858 W/m 12,7 C 33,2 C 0,0 km/h (0 Bft) 0,00 %
12.08.2015 13:52 33,4 C 25 % 1017,7 hPa 0,0 l/m 0,0 km/h (0 Bft) N-NO 31 5 min 0,000 mm 4,0 UV-I 907 W/m 10,7 C 33,4 C 0,0 km/h (0 Bft) 0,00 %
12.08.2015 13:57 33,5 C 23 % 1017,8 hPa 0,0 l/m 5,8 km/h (2 Bft) W 267 5 min 0,000 mm 4,0 UV-I 879 W/m 9,5 C 33,5 C 7,9 km/h (2 Bft) 0,00 %
12.08.2015 14:02 33,8 C 22 % 1017,5 hPa 0,0 l/m 4,0 km/h (1 Bft) W-NW 294 5 min 0,000 mm 3,0 UV-I 868 W/m 9,1 C 33,8 C 7,9 km/h (2 Bft) 0,00 %
12.08.2015 14:07 34,1 C 25 % 1017,6 hPa 0,0 l/m 1,4 km/h (1 Bft) N-NW 347 5 min 0,000 mm 3,0 UV-I 872 W/m 11,2 C 34,1 C 4,0 km/h (1 Bft) 0,00 %
12.08.2015 14:12 34,3 C 22 % 1017,3 hPa 0,0 l/m 0,0 km/h (0 Bft) N-NO 30 5 min 0,000 mm 3,0 UV-I 891 W/m 9,5 C 34,3 C 0,0 km/h (0 Bft) 0,00 %
12.08.2015 14:17 34,6 C 21 % 1017,1 hPa 0,0 l/m 0,7 km/h (0 Bft) N-NW 328 5 min 0,000 mm 3,0 UV-I 856 W/m 9,0 C 34,6 C 4,0 km/h (1 Bft) 0,00 %
12.08.2015 14:22 34,7 C 22 % 1017,2 hPa 0,0 l/m 0,0 km/h (0 Bft) N-NW 347 5 min 0,000 mm 3,0 UV-I 864 W/m 9,8 C 34,7 C 0,0 km/h (0 Bft) 0,00 %
12.08.2015 14:27 34,7 C 22 % 1017,1 hPa 0,0 l/m 4,0 km/h (1 Bft) W 277 5 min 0,000 mm 3,0 UV-I 871 W/m 9,8 C 34,7 C 7,9 km/h (2 Bft) 0,00 %
12.08.2015 14:32 34,7 C 21 % 1017,0 hPa 0,0 l/m 1,8 km/h (1 Bft) N-NW 329 5 min 0,000 mm 3,0 UV-I 883 W/m 9,1 C 34,7 C 4,0 km/h (1 Bft) 0,00 %
12.08.2015 14:37 34,7 C 20 % 1016,8 hPa 0,0 l/m 3,2 km/h (1 Bft) N-NO 28 5 min 0,000 mm 3,0 UV-I 879 W/m 8,4 C 34,7 C 7,9 km/h (2 Bft) 0,00 %
12.08.2015 14:42 34,5 C 22 % 1017,0 hPa 0,0 l/m 0,0 km/h (0 Bft) NO 40 5 min 0,000 mm 3,0 UV-I 870 W/m 9,7 C 34,5 C 0,0 km/h (0 Bft) 0,00 %
12.08.2015 14:47 34,4 C 22 % 1016,8 hPa 0,0 l/m 1,8 km/h (1 Bft) W-NW 292 5 min 0,000 mm 3,0 UV-I 875 W/m 9,6 C 34,4 C 4,0 km/h (1 Bft) 0,00 %
12.08.2015 14:52 34,6 C 20 % 1016,8 hPa 0,0 l/m 2,2 km/h (1 Bft) W-NW 287 5 min 0,000 mm 3,0 UV-I 871 W/m 8,3 C 34,6 C 4,0 km/h (1 Bft) 0,00 %
12.08.2015 14:57 34,9 C 19 % 1016,6 hPa 0,0 l/m 4,3 km/h (1 Bft) W-NW 286 5 min 0,000 mm 3,0 UV-I 871 W/m 7,8 C 34,9 C 7,9 km/h (2 Bft) 0,00 %
12.08.2015 15:02 35,1 C 19 % 1016,6 hPa 0,0 l/m 0,0 km/h (0 Bft) NO 46 5 min 0,000 mm 3,0 UV-I 874 W/m 8,0 C 35,1 C 0,0 km/h (0 Bft) 0,00 %
12.08.2015 15:07 35,2 C 20 % 1016,8 hPa 0,0 l/m 0,0 km/h (0 Bft) NO 35 5 min 0,000 mm 3,0 UV-I 873 W/m 8,8 C 35,2 C 0,0 km/h (0 Bft) 0,00 %
12.08.2015 15:12 35,2 C 20 % 1016,6 hPa 0,0 l/m 0,0 km/h (0 Bft) O-NO 64 5 min 0,000 mm 3,0 UV-I 860 W/m 8,8 C 35,2 C 0,0 km/h (0 Bft) 0,00 %
12.08.2015 15:17 35,2 C 20 % 1016,4 hPa 0,0 l/m 1,4 km/h (1 Bft) NW 312 5 min 0,000 mm 3,0 UV-I 854 W/m 8,8 C 35,2 C 4,0 km/h (1 Bft) 0,00 %
12.08.2015 15:22 35,1 C 20 % 1016,4 hPa 0,0 l/m 1,8 km/h (1 Bft) N-NW 347 5 min 0,000 mm 3,0 UV-I 852 W/m 8,7 C 35,1 C 4,0 km/h (1 Bft) 0,00 %
12.08.2015 15:28 35,0 C 20 % 1016,6 hPa 0,0 l/m 0,4 km/h (0 Bft) N 350 6 min 0,000 mm 3,0 UV-I 849 W/m 8,7 C 35,0 C 4,0 km/h (1 Bft) 0,00 %
12.08.2015 15:33 34,9 C 19 % 1016,4 hPa 0,0 l/m 4,0 km/h (1 Bft) O-NO 63 5 min 0,000 mm 2,0 UV-I 828 W/m 7,8 C 34,9 C 7,9 km/h (2 Bft) 0,00 %
12.08.2015 15:38 34,8 C 21 % 1016,2 hPa 0,0 l/m 0,0 km/h (0 Bft) N-NO 15 5 min 0,000 mm 2,0 UV-I 813 W/m 9,2 C 34,8 C 0,0 km/h (0 Bft) 0,00 %
12.08.2015 15:43 34,5 C 21 % 1016,4 hPa 0,0 l/m 0,0 km/h (0 Bft) N 8 5 min 0,000 mm 2,0 UV-I 832 W/m 9,0 C 34,5 C 0,0 km/h (0 Bft) 0,00 %
12.08.2015 15:48 34,5 C 21 % 1016,3 hPa 0,0 l/m 0,4 km/h (0 Bft) O 86 5 min 0,000 mm 2,0 UV-I 825 W/m 9,0 C 34,5 C 4,0 km/h (1 Bft) 0,00 %
12.08.2015 15:53 34,6 C 22 % 1016,3 hPa 0,0 l/m 0,4 km/h (0 Bft) N-NO 30 5 min 0,000 mm 2,0 UV-I 837 W/m 9,7 C 34,6 C 4,0 km/h (1 Bft) 0,00 %
12.08.2015 15:58 34,8 C 20 % 1016,4 hPa 0,0 l/m 0,4 km/h (0 Bft) O 90 5 min 0,000 mm 2,0 UV-I 839 W/m 8,5 C 34,8 C 4,0 km/h (1 Bft) 0,00 %
12.08.2015 16:03 35,0 C 21 % 1016,3 hPa 0,0 l/m 0,7 km/h (0 Bft) NW 307 5 min 0,000 mm 2,0 UV-I 825 W/m 9,4 C 35,0 C 4,0 km/h (1 Bft) 0,00 %
12.08.2015 16:08 35,2 C 20 % 1016,1 hPa 0,0 l/m 0,0 km/h (0 Bft) NO 50 5 min 0,000 mm 2,0 UV-I 815 W/m 8,8 C 35,2 C 0,0 km/h (0 Bft) 0,00 %
12.08.2015 16:13 35,5 C 20 % 1016,3 hPa 0,0 l/m 0,0 km/h (0 Bft) N-NO 24 5 min 0,000 mm 2,0 UV-I 809 W/m 9,1 C 35,5 C 0,0 km/h (0 Bft) 0,00 %
12.08.2015 16:18 35,6 C 20 % 1016,2 hPa 0,0 l/m 1,8 km/h (1 Bft) N-NO 18 5 min 0,000 mm 2,0 UV-I 815 W/m 9,1 C 35,6 C 7,9 km/h (2 Bft) 0,00 %
12.08.2015 16:23 35,5 C 20 % 1016,2 hPa 0,0 l/m 2,9 km/h (1 Bft) O 97 5 min 0,000 mm 2,0 UV-I 809 W/m 9,1 C 35,5 C 4,0 km/h (1 Bft) 0,00 %
12.08.2015 16:28 35,3 C 20 % 1016,2 hPa 0,0 l/m 0,0 km/h (0 Bft) NO 41 5 min 0,000 mm 2,0 UV-I 807 W/m 8,9 C 35,3 C 0,0 km/h (0 Bft) 0,00 %
12.08.2015 16:33 35,2 C 20 % 1016,2 hPa 0,0 l/m 0,0 km/h (0 Bft) NO 55 5 min 0,000 mm 1,0 UV-I 783 W/m 8,8 C 35,2 C 0,0 km/h (0 Bft) 0,00 %
12.08.2015 16:38 35,2 C 20 % 1016,1 hPa 0,0 l/m 4,0 km/h (1 Bft) O-NO 62 5 min 0,000 mm 1,0 UV-I 774 W/m 8,8 C 35,2 C 4,0 km/h (1 Bft) 0,00 %
12.08.2015 16:43 35,1 C 20 % 1016,0 hPa 0,0 l/m 0,0 km/h (0 Bft) N 352 5 min 0,000 mm 1,0 UV-I 770 W/m 8,7 C 35,1 C 0,0 km/h (0 Bft) 0,00 %
12.08.2015 16:48 34,8 C 21 % 1016,0 hPa 0,0 l/m 1,4 km/h (1 Bft) N-NO 29 5 min 0,000 mm 1,0 UV-I 752 W/m 9,2 C 34,8 C 4,0 km/h (1 Bft) 0,00 %
12.08.2015 16:53 34,4 C 22 % 1016,1 hPa 0,0 l/m 6,8 km/h (2 Bft) N-NW 343 5 min 0,000 mm 1,0 UV-I 734 W/m 9,6 C 34,4 C 7,9 km/h (2 Bft) 0,00 %
12.08.2015 16:58 34,2 C 21 % 1016,0 hPa 0,0 l/m 2,9 km/h (1 Bft) SO 136 5 min 0,000 mm 1,0 UV-I 711 W/m 8,7 C 34,2 C 4,0 km/h (1 Bft) 0,00 %
12.08.2015 17:03 34,3 C 22 % 1016,1 hPa 0,0 l/m 0,0 km/h (0 Bft) W 267 5 min 0,000 mm 1,0 UV-I 686 W/m 9,5 C 34,3 C 0,0 km/h (0 Bft) 0,00 %
12.08.2015 17:08 34,3 C 21 % 1015,9 hPa 0,0 l/m 0,0 km/h (0 Bft) N-NO 31 5 min 0,000 mm 1,0 UV-I 689 W/m 8,8 C 34,3 C 0,0 km/h (0 Bft) 0,00 %
12.08.2015 17:13 34,5 C 21 % 1015,9 hPa 0,0 l/m 0,0 km/h (0 Bft) N 352 5 min 0,000 mm 1,0 UV-I 695 W/m 9,0 C 34,5 C 0,0 km/h (0 Bft) 0,00 %
12.08.2015 17:18 34,8 C 21 % 1015,9 hPa 0,0 l/m 0,0 km/h (0 Bft) N-NO 28 5 min 0,000 mm 1,0 UV-I 694 W/m 9,2 C 34,8 C 0,0 km/h (0 Bft) 0,00 %
12.08.2015 17:23 35,1 C 20 % 1015,9 hPa 0,0 l/m 0,0 km/h (0 Bft) NO 42 5 min 0,000 mm 1,0 UV-I 684 W/m 8,7 C 35,1 C 0,0 km/h (0 Bft) 0,00 %
12.08.2015 17:28 35,1 C 20 % 1015,8 hPa 0,0 l/m 0,0 km/h (0 Bft) N-NO 28 5 min 0,000 mm 1,0 UV-I 680 W/m 8,7 C 35,1 C 0,0 km/h (0 Bft) 0,00 %
12.08.2015 17:33 35,0 C 21 % 1016,0 hPa 0,0 l/m 0,0 km/h (0 Bft) NO 46 5 min 0,000 mm 1,0 UV-I 665 W/m 9,4 C 35,0 C 0,0 km/h (0 Bft) 0,00 %
12.08.2015 17:38 34,8 C 21 % 1015,8 hPa 0,0 l/m 0,0 km/h (0 Bft) O 79 5 min 0,000 mm 1,0 UV-I 650 W/m 9,2 C 34,8 C 0,0 km/h (0 Bft) 0,00 %
12.08.2015 17:43 34,7 C 21 % 1015,7 hPa 0,0 l/m 7,2 km/h (2 Bft) O-NO 66 5 min 0,000 mm 1,0 UV-I 622 W/m 9,1 C 34,7 C 11,9 km/h (2 Bft) 0,00 %
12.08.2015 17:48 34,5 C 22 % 1015,8 hPa 0,0 l/m 4,0 km/h (1 Bft) O-SO 105 5 min 0,000 mm 1,0 UV-I 602 W/m 9,7 C 34,5 C 7,9 km/h (2 Bft) 0,00 %
12.08.2015 17:53 34,2 C 22 % 1015,6 hPa 0,0 l/m 0,4 km/h (0 Bft) NO 47 5 min 0,000 mm 1,0 UV-I 580 W/m 9,4 C 34,2 C 4,0 km/h (1 Bft) 0,00 %
12.08.2015 17:58 33,9 C 23 % 1015,7 hPa 0,0 l/m 0,0 km/h (0 Bft) O-NO 62 5 min 0,000 mm 1,0 UV-I 555 W/m 9,8 C 33,9 C 0,0 km/h (0 Bft) 0,00 %
12.08.2015 18:03 33,9 C 23 % 1015,6 hPa 0,0 l/m 0,0 km/h (0 Bft) O 99 5 min 0,000 mm 1,0 UV-I 540 W/m 9,8 C 33,9 C 0,0 km/h (0 Bft) 0,00 %
12.08.2015 18:08 33,9 C 22 % 1015,7 hPa 0,0 l/m 0,0 km/h (0 Bft) NO 44 5 min 0,000 mm 1,0 UV-I 514 W/m 9,2 C 33,9 C 0,0 km/h (0 Bft) 0,00 %
12.08.2015 18:13 33,9 C 22 % 1015,6 hPa 0,0 l/m 0,0 km/h (0 Bft) O-NO 77 5 min 0,000 mm 1,0 UV-I 497 W/m 9,2 C 33,9 C 0,0 km/h (0 Bft) 0,00 %
12.08.2015 18:18 34,0 C 21 % 1015,6 hPa 0,0 l/m 0,0 km/h (0 Bft) NO 54 5 min 0,000 mm 1,0 UV-I 475 W/m 8,6 C 34,0 C 0,0 km/h (0 Bft) 0,00 %
12.08.2015 18:23 34,1 C 21 % 1015,6 hPa 0,0 l/m 0,0 km/h (0 Bft) N-NO 28 5 min 0,000 mm 1,0 UV-I 445 W/m 8,6 C 34,1 C 0,0 km/h (0 Bft) 0,00 %
12.08.2015 18:28 34,2 C 26 % 1015,5 hPa 0,0 l/m 0,0 km/h (0 Bft) NO 43 5 min 0,000 mm 1,0 UV-I 419 W/m 11,9 C 34,2 C 0,0 km/h (0 Bft) 0,00 %
12.08.2015 18:33 34,3 C 22 % 1015,6 hPa 0,0 l/m 0,0 km/h (0 Bft) N-NO 31 5 min 0,000 mm 1,0 UV-I 405 W/m 9,5 C 34,3 C 0,0 km/h (0 Bft) 0,00 %
12.08.2015 18:38 34,3 C 27 % 1015,8 hPa 0,0 l/m 0,0 km/h (0 Bft) NO 45 5 min 0,000 mm 1,0 UV-I 392 W/m 12,6 C 34,3 C 0,0 km/h (0 Bft) 0,00 %
12.08.2015 18:43 34,1 C 23 % 1015,5 hPa 0,0 l/m 0,0 km/h (0 Bft) NO 43 5 min 0,000 mm 1,0 UV-I 378 W/m 10,0 C 34,1 C 0,0 km/h (0 Bft) 0,00 %
12.08.2015 18:48 33,9 C 24 % 1015,5 hPa 0,0 l/m 0,0 km/h (0 Bft) O-NO 67 5 min 0,000 mm 1,0 UV-I 359 W/m 10,5 C 33,9 C 0,0 km/h (0 Bft) 0,00 %
12.08.2015 18:53 33,8 C 25 % 1015,6 hPa 0,0 l/m 0,0 km/h (0 Bft) NO 35 5 min 0,000 mm 1,0 UV-I 336 W/m 11,0 C 33,8 C 0,0 km/h (0 Bft) 0,00 %
12.08.2015 18:58 33,8 C 23 % 1015,9 hPa 0,0 l/m 0,0 km/h (0 Bft) N-NO 33 5 min 0,000 mm 1,0 UV-I 309 W/m 9,7 C 33,8 C 0,0 km/h (0 Bft) 0,00 %
12.08.2015 19:03 33,8 C 23 % 1015,6 hPa 0,0 l/m 0,0 km/h (0 Bft) N-NO 33 5 min 0,000 mm 1,0 UV-I 289 W/m 9,7 C 33,8 C 0,0 km/h (0 Bft) 0,00 %
12.08.2015 19:08 33,9 C 24 % 1015,8 hPa 0,0 l/m 0,0 km/h (0 Bft) N-NO 13 5 min 0,000 mm 0,0 UV-I 261 W/m 10,5 C 33,9 C 0,0 km/h (0 Bft) 0,00 %
12.08.2015 19:13 33,9 C 26 % 1015,7 hPa 0,0 l/m 0,0 km/h (0 Bft) N-NO 13 5 min 0,000 mm 0,0 UV-I 232 W/m 11,7 C 33,9 C 0,0 km/h (0 Bft) 0,00 %
12.08.2015 19:18 33,9 C 23 % 1015,6 hPa 0,0 l/m 0,0 km/h (0 Bft) N-NO 13 5 min 0,000 mm 0,0 UV-I 202 W/m 9,8 C 33,9 C 0,0 km/h (0 Bft) 0,00 %
12.08.2015 19:23 33,7 C 23 % 1015,7 hPa 0,0 l/m 0,0 km/h (0 Bft) N-NO 12 5 min 0,000 mm 0,0 UV-I 177 W/m 9,7 C 33,7 C 0,0 km/h (0 Bft) 0,00 %
12.08.2015 19:28 33,6 C 26 % 1015,9 hPa 0,0 l/m 0,0 km/h (0 Bft) N-NO 13 5 min 0,000 mm 0,0 UV-I 151 W/m 11,4 C 33,6 C 0,0 km/h (0 Bft) 0,00 %
12.08.2015 19:33 33,3 C 28 % 1015,6 hPa 0,0 l/m 0,0 km/h (0 Bft) O-NO 60 5 min 0,000 mm 0,0 UV-I 129 W/m 12,3 C 33,3 C 0,0 km/h (0 Bft) 0,00 %
12.08.2015 19:38 33,0 C 29 % 1015,8 hPa 0,0 l/m 0,0 km/h (0 Bft) O-NO 60 5 min 0,000 mm 0,0 UV-I 103 W/m 12,6 C 33,0 C 0,0 km/h (0 Bft) 0,00 %
12.08.2015 19:43 32,7 C 29 % 1015,6 hPa 0,0 l/m 0,0 km/h (0 Bft) O-NO 60 5 min 0,000 mm 0,0 UV-I 84 W/m 12,3 C 32,7 C 0,0 km/h (0 Bft) 0,00 %
12.08.2015 19:48 32,3 C 28 % 1015,9 hPa 0,0 l/m 0,0 km/h (0 Bft) O-NO 60 5 min 0,000 mm 0,0 UV-I 56 W/m 11,4 C 32,3 C 0,0 km/h (0 Bft) 0,00 %
12.08.2015 19:53 31,8 C 30 % 1015,8 hPa 0,0 l/m 0,0 km/h (0 Bft) O-NO 60 5 min 0,000 mm 0,0 UV-I 44 W/m 12,1 C 31,8 C 0,0 km/h (0 Bft) 0,00 %
12.08.2015 19:58 31,2 C 32 % 1015,7 hPa 0,0 l/m 0,0 km/h (0 Bft) O-NO 64 5 min 0,000 mm 0,0 UV-I 34 W/m 12,5 C 31,2 C 0,0 km/h (0 Bft) 0,00 %
12.08.2015 20:03 30,6 C 31 % 1015,8 hPa 0,0 l/m 0,0 km/h (0 Bft) O-NO 65 5 min 0,000 mm 0,0 UV-I 25 W/m 11,5 C 30,6 C 0,0 km/h (0 Bft) 0,00 %
12.08.2015 20:08 30,0 C 33 % 1015,7 hPa 0,0 l/m 0,0 km/h (0 Bft) O-NO 65 5 min 0,000 mm 0,0 UV-I 17 W/m 11,9 C 30,0 C 0,0 km/h (0 Bft) 0,00 %
12.08.2015 20:13 29,5 C 35 % 1016,0 hPa 0,0 l/m 0,0 km/h (0 Bft) N-NO 32 0 min 0,000 mm 0,0 UV-I 4 W/m 12,4 C 29,5 C 0,0 km/h (0 Bft) 0,00 %
12.08.2015 20:18 28,9 C 41 % 1015,8 hPa 0,0 l/m 0,0 km/h (0 Bft) N-NO 16 0 min 0,000 mm 0,0 UV-I 0 W/m 14,3 C 28,9 C 0,0 km/h (0 Bft) 0,00 %
12.08.2015 20:23 28,7 C 42 % 1015,7 hPa 0,0 l/m 0,0 km/h (0 Bft) N-NO 16 0 min 0,000 mm 0,0 UV-I 0 W/m 14,5 C 28,7 C 0,0 km/h (0 Bft) 0,00 %
12.08.2015 20:28 28,1 C 42 % 1016,1 hPa 0,0 l/m 0,0 km/h (0 Bft) NO 45 0 min 0,000 mm 0,0 UV-I 0 W/m 14,0 C 28,1 C 0,0 km/h (0 Bft) 0,00 %
12.08.2015 20:33 27,5 C 41 % 1016,0 hPa 0,0 l/m 0,0 km/h (0 Bft) O-NO 60 0 min 0,000 mm 0,0 UV-I 0 W/m 13,1 C 27,5 C 0,0 km/h (0 Bft) 0,00 %
12.08.2015 20:38 27,0 C 40 % 1016,1 hPa 0,0 l/m 0,0 km/h (0 Bft) NO 54 0 min 0,000 mm 0,0 UV-I 0 W/m 12,2 C 27,0 C 0,0 km/h (0 Bft) 0,00 %
12.08.2015 20:43 26,7 C 40 % 1015,9 hPa 0,0 l/m 0,0 km/h (0 Bft) NO 56 0 min 0,000 mm 0,0 UV-I 0 W/m 12,0 C 26,7 C 0,0 km/h (0 Bft) 0,00 %
12.08.2015 20:48 26,5 C 41 % 1016,1 hPa 0,0 l/m 0,0 km/h (0 Bft) NO 56 0 min 0,000 mm 0,0 UV-I 0 W/m 12,2 C 26,5 C 0,0 km/h (0 Bft) 0,00 %
12.08.2015 20:53 26,2 C 41 % 1016,3 hPa 0,0 l/m 0,0 km/h (0 Bft) NO 56 0 min 0,000 mm 0,0 UV-I 0 W/m 11,9 C 26,2 C 0,0 km/h (0 Bft) 0,00 %
12.08.2015 20:58 26,1 C 42 % 1016,3 hPa 0,0 l/m 0,0 km/h (0 Bft) NO 54 0 min 0,000 mm 0,0 UV-I 0 W/m 12,2 C 26,1 C 0,0 km/h (0 Bft) 0,00 %
12.08.2015 21:03 25,8 C 46 % 1016,6 hPa 0,0 l/m 0,0 km/h (0 Bft) NO 54 0 min 0,000 mm 0,0 UV-I 0 W/m 13,3 C 25,8 C 0,0 km/h (0 Bft) 0,00 %
12.08.2015 21:08 25,6 C 42 % 1016,5 hPa 0,0 l/m 0,0 km/h (0 Bft) NO 54 0 min 0,000 mm 0,0 UV-I 0 W/m 11,7 C 25,6 C 0,0 km/h (0 Bft) 0,00 %
12.08.2015 21:13 25,5 C 45 % 1016,6 hPa 0,0 l/m 0,0 km/h (0 Bft) NO 49 0 min 0,000 mm 0,0 UV-I 0 W/m 12,7 C 25,5 C 0,0 km/h (0 Bft) 0,00 %
12.08.2015 21:18 25,2 C 47 % 1016,7 hPa 0,0 l/m 0,0 km/h (0 Bft) O-NO 66 0 min 0,000 mm 0,0 UV-I 0 W/m 13,1 C 25,2 C 0,0 km/h (0 Bft) 0,00 %
12.08.2015 21:23 25,1 C 46 % 1016,5 hPa 0,0 l/m 0,0 km/h (0 Bft) O-NO 65 0 min 0,000 mm 0,0 UV-I 0 W/m 12,7 C 25,1 C 0,0 km/h (0 Bft) 0,00 %
12.08.2015 21:28 24,9 C 48 % 1016,8 hPa 0,0 l/m 0,0 km/h (0 Bft) O-NO 65 0 min 0,000 mm 0,0 UV-I 0 W/m 13,1 C 24,9 C 0,0 km/h (0 Bft) 0,00 %
12.08.2015 21:33 24,6 C 45 % 1016,7 hPa 0,0 l/m 0,0 km/h (0 Bft) O-NO 66 0 min 0,000 mm 0,0 UV-I 0 W/m 11,9 C 24,6 C 0,0 km/h (0 Bft) 0,00 %
12.08.2015 21:38 24,5 C 47 % 1016,7 hPa 0,0 l/m 0,0 km/h (0 Bft) O-NO 64 0 min 0,000 mm 0,0 UV-I 0 W/m 12,4 C 24,5 C 0,0 km/h (0 Bft) 0,00 %
12.08.2015 21:43 24,4 C 47 % 1016,8 hPa 0,0 l/m 0,0 km/h (0 Bft) N-NO 29 0 min 0,000 mm 0,0 UV-I 0 W/m 12,3 C 24,4 C 0,0 km/h (0 Bft) 0,00 %
12.08.2015 21:48 24,3 C 50 % 1016,8 hPa 0,0 l/m 0,0 km/h (0 Bft) N-NO 29 0 min 0,000 mm 0,0 UV-I 0 W/m 13,2 C 24,3 C 0,0 km/h (0 Bft) 0,00 %
12.08.2015 21:53 24,2 C 50 % 1016,6 hPa 0,0 l/m 0,0 km/h (0 Bft) NO 52 0 min 0,000 mm 0,0 UV-I 0 W/m 13,1 C 24,2 C 0,0 km/h (0 Bft) 0,00 %
12.08.2015 21:58 24,0 C 50 % 1016,7 hPa 0,0 l/m 0,0 km/h (0 Bft) O-NO 66 0 min 0,000 mm 0,0 UV-I 0 W/m 12,9 C 24,0 C 0,0 km/h (0 Bft) 0,00 %
12.08.2015 22:03 23,9 C 52 % 1016,5 hPa 0,0 l/m 0,0 km/h (0 Bft) NO 50 0 min 0,000 mm 0,0 UV-I 0 W/m 13,4 C 23,9 C 0,0 km/h (0 Bft) 0,00 %
12.08.2015 22:08 23,7 C 51 % 1016,4 hPa 0,0 l/m 0,0 km/h (0 Bft) NO 42 0 min 0,000 mm 0,0 UV-I 0 W/m 13,0 C 23,7 C 0,0 km/h (0 Bft) 0,00 %
12.08.2015 22:13 23,6 C 51 % 1016,6 hPa 0,0 l/m 0,0 km/h (0 Bft) NO 42 0 min 0,000 mm 0,0 UV-I 0 W/m 12,9 C 23,6 C 0,0 km/h (0 Bft) 0,00 %
12.08.2015 22:18 23,4 C 51 % 1016,6 hPa 0,0 l/m 0,0 km/h (0 Bft) NO 43 0 min 0,000 mm 0,0 UV-I 0 W/m 12,7 C 23,4 C 0,0 km/h (0 Bft) 0,00 %
12.08.2015 22:23 23,3 C 51 % 1016,5 hPa 0,0 l/m 0,0 km/h (0 Bft) NO 43 0 min 0,000 mm 0,0 UV-I 0 W/m 12,6 C 23,3 C 0,0 km/h (0 Bft) 0,00 %
12.08.2015 22:28 23,3 C 52 % 1016,6 hPa 0,0 l/m 0,0 km/h (0 Bft) NO 43 0 min 0,000 mm 0,0 UV-I 0 W/m 12,9 C 23,3 C 0,0 km/h (0 Bft) 0,00 %
12.08.2015 22:33 23,2 C 52 % 1016,5 hPa 0,0 l/m 0,0 km/h (0 Bft) NO 40 0 min 0,000 mm 0,0 UV-I 0 W/m 12,8 C 23,2 C 0,0 km/h (0 Bft) 0,00 %
12.08.2015 22:38 23,2 C 52 % 1016,6 hPa 0,0 l/m 0,0 km/h (0 Bft) NO 47 0 min 0,000 mm 0,0 UV-I 0 W/m 12,8 C 23,2 C 0,0 km/h (0 Bft) 0,00 %
12.08.2015 22:43 23,2 C 52 % 1016,6 hPa 0,0 l/m 0,0 km/h (0 Bft) NO 43 0 min 0,000 mm 0,0 UV-I 0 W/m 12,8 C 23,2 C 0,0 km/h (0 Bft) 0,00 %
12.08.2015 22:48 23,1 C 52 % 1016,7 hPa 0,0 l/m 0,0 km/h (0 Bft) NO 41 0 min 0,000 mm 0,0 UV-I 0 W/m 12,7 C 23,1 C 0,0 km/h (0 Bft) 0,00 %
12.08.2015 22:53 23,1 C 54 % 1016,7 hPa 0,0 l/m 0,0 km/h (0 Bft) NO 47 0 min 0,000 mm 0,0 UV-I 0 W/m 13,3 C 23,1 C 0,0 km/h (0 Bft) 0,00 %
12.08.2015 22:58 23,0 C 54 % 1016,7 hPa 0,0 l/m 0,0 km/h (0 Bft) NO 43 0 min 0,000 mm 0,0 UV-I 0 W/m 13,2 C 23,0 C 0,0 km/h (0 Bft) 0,00 %
12.08.2015 23:03 22,8 C 55 % 1016,8 hPa 0,0 l/m 0,0 km/h (0 Bft) NO 42 0 min 0,000 mm 0,0 UV-I 0 W/m 13,3 C 22,8 C 0,0 km/h (0 Bft) 0,00 %
12.08.2015 23:08 22,7 C 55 % 1016,7 hPa 0,0 l/m 0,0 km/h (0 Bft) NO 45 0 min 0,000 mm 0,0 UV-I 0 W/m 13,2 C 22,7 C 0,0 km/h (0 Bft) 0,00 %
12.08.2015 23:13 22,6 C 54 % 1016,8 hPa 0,0 l/m 0,0 km/h (0 Bft) NO 49 0 min 0,000 mm 0,0 UV-I 0 W/m 12,8 C 22,6 C 0,0 km/h (0 Bft) 0,00 %
12.08.2015 23:18 22,4 C 57 % 1016,9 hPa 0,0 l/m 0,0 km/h (0 Bft) O-NO 66 0 min 0,000 mm 0,0 UV-I 0 W/m 13,5 C 22,4 C 0,0 km/h (0 Bft) 0,00 %
12.08.2015 23:23 22,2 C 56 % 1016,9 hPa 0,0 l/m 0,0 km/h (0 Bft) O-NO 60 0 min 0,000 mm 0,0 UV-I 0 W/m 13,0 C 22,2 C 0,0 km/h (0 Bft) 0,00 %
12.08.2015 23:28 22,1 C 55 % 1017,1 hPa 0,0 l/m 0,0 km/h (0 Bft) O-NO 62 0 min 0,000 mm 0,0 UV-I 0 W/m 12,6 C 22,1 C 0,0 km/h (0 Bft) 0,00 %
12.08.2015 23:33 22,2 C 54 % 1017,0 hPa 0,0 l/m 0,0 km/h (0 Bft) O 89 0 min 0,000 mm 0,0 UV-I 0 W/m 12,4 C 22,2 C 0,0 km/h (0 Bft) 0,00 %
12.08.2015 23:38 22,5 C 53 % 1017,1 hPa 0,0 l/m 0,0 km/h (0 Bft) NO 56 0 min 0,000 mm 0,0 UV-I 0 W/m 12,4 C 22,5 C 0,0 km/h (0 Bft) 0,00 %
12.08.2015 23:43 22,8 C 53 % 1016,9 hPa 0,0 l/m 0,0 km/h (0 Bft) NO 41 0 min 0,000 mm 0,0 UV-I 0 W/m 12,7 C 22,8 C 0,0 km/h (0 Bft) 0,00 %
12.08.2015 23:48 22,8 C 54 % 1016,9 hPa 0,0 l/m 0,0 km/h (0 Bft) NO 41 0 min 0,000 mm 0,0 UV-I 0 W/m 13,0 C 22,8 C 0,0 km/h (0 Bft) 0,00 %
12.08.2015 23:53 22,6 C 55 % 1016,9 hPa 0,0 l/m 0,0 km/h (0 Bft) NO 34 0 min 0,000 mm 0,0 UV-I 0 W/m 13,1 C 22,6 C 0,0 km/h (0 Bft) 0,00 %
12.08.2015 23:58 22,4 C 56 % 1016,8 hPa 0,0 l/m 0,0 km/h (0 Bft) NO 45 0 min 0,000 mm 0,0 UV-I 0 W/m 13,2 C 22,4 C 0,0 km/h (0 Bft) 0,00 %
_ Min-Zeit 06:12 14:57 18:28 - 00:02 - - - - - - 14:57 06:12 00:02 00:02
Minimum _ 14,7 C 19 % 1015,5 hPa - 0,0 km/h (0 Bft) - - - - - - 7,8 C 14,7 C 0,0 km/h (0 Bft) 0,00 %
_ Max-Zeit 16:18 06:02 10:42 00:02 17:43 - - 15:28 00:02 12:22 13:52 20:23 16:18 17:43 00:02
Maximum _ 35,6 C 83 % 1018,8 hPa 0,0 l/m 7,2 km/h
O-NO (2 Bft)
- - 6 min 0,000 mm 4,0 UV-I 907 W/m 14,5 C 35,6 C 11,9 km/h
O-NO (2 Bft)
0,00 %
Durchschnitt _ 25,8 C 47 % 1016,9 hPa #0,0 l/m 0,3 km/h (0 Bft) W-NW - #12:11 h #0,000 mm 2,0 UV-I 498 W/m 11,7 C 25,8 C 0,7 km/h (0 Bft) 0,00 %